sat.trackr.live / text

‹ back to catalog

STARLINK-2478

NORAD 48135 · 2021-027AV

PAYLOAD ACTIVE UNKNOWN

§ Identity

Operator
Country
US
Launch date
2021-04-07
Launch site
AFETR
Launch vehicle
Mass (kg)
RCS (m²)

Purposes: comms

External: N2YO · Heavens-Above · Gunter

§ Orbital elements

Epoch: 2026-05-25T01:05:17.388960Z

Period
94.01 min
Inclination
53.1570°
Eccentricity
0.0001117
Mean motion
15.31700698 rev/d
Perigee alt
470.0 km
Apogee alt
471.5 km
Semi-major
6,848.9 km
B*
2.7261e-5
RAAN
172.8255°
Arg perigee
90.2807°
Mean anomaly
269.8323°
Rev number
28,417

§ Raw data

STARLINK-24781 48135U 21027AV  26145.04534015  .00000481  00000+0  27261-4 0  99972 48135  53.1570 172.8255 0001117  90.2807 269.8323 15.31700698284175

JSON: /api/v1/satellites/48135 · /tle

For live sub-satellite position, see the globe view (requires WebGL).

§ Visibility from observer

Set your observer location to see the next 7 days of passes ≥ 10°. The values pass through the URL so the page stays shareable.

No JS? Fill the form by hand. The geolocation button needs JavaScript.